• In Kazakhstan
  • List of Countries
  • For 7 days
  • Water Temperature
  • Weather Map
  • News
  • Weather Widgets
  • user-avatar
    Login

    Hourly Weather Lainate

    Today, 12 November, Tuesday

    Time Temperature Precipitation Wind Pressure Humidity
    00:00 +9°C° 1.6 mm 1 mps 740 mmHg 89%
    01:00 +8°C° 1.6 mm 2 mps 740 mmHg 89%
    02:00 +8°C° 1.1 mm 2 mps 739 mmHg 89%
    03:00 +8°C° 1.1 mm 2 mps 739 mmHg 88%
    04:00 +8°C° 1.1 mm 2 mps 738 mmHg 88%
    05:00 +8°C° 0.6 mm 2 mps 738 mmHg 87%
    06:00 +8°C° 0.6 mm 2 mps 738 mmHg 87%
    07:00 +8°C° 0.6 mm 2 mps 738 mmHg 86%
    08:00 +8°C° 0.5 mm 2 mps 738 mmHg 83%
    09:00 +8°C° 0.5 mm 3 mps 738 mmHg 80%
    10:00 +8°C° 0.5 mm 3 mps 738 mmHg 78%
    11:00 +9°C° 0.2 mm 3 mps 737 mmHg 75%
    12:00 +9°C° 0.2 mm 3 mps 736 mmHg 72%
    13:00 +9°C° 0.2 mm 3 mps 736 mmHg 70%
    14:00 +10°C° 0 mm 2 mps 736 mmHg 68%
    15:00 +10°C° 0 mm 2 mps 735 mmHg 67%
    16:00 +11°C° 0 mm 1 mps 735 mmHg 66%
    17:00 +11°C° 0 mm 1 mps 735 mmHg 67%
    18:00 +10°C° 0 mm 1 mps 735 mmHg 68%
    19:00 +10°C° 0 mm 1 mps 735 mmHg 69%
    20:00 +10°C° 0.1 mm 1 mps 735 mmHg 68%
    21:00 +8°C° 0.1 mm 2 mps 735 mmHg 68%
    22:00 +8°C° 0.1 mm 2 mps 735 mmHg 67%
    23:00 +8°C° 0.1 mm 2 mps 735 mmHg 68%

    Tomorrow, 13 November, Wednesday

    Time Temperature Precipitation Wind Pressure Humidity
    00:00 +8°C° 0.1 mm 2 mps 735 mmHg 69%
    01:00 +7°C° 0.1 mm 2 mps 735 mmHg 69%
    02:00 +7°C° 0.1 mm 2 mps 734 mmHg 69%
    03:00 +7°C° 0.1 mm 2 mps 734 mmHg 70%
    04:00 +6°C° 0.1 mm 2 mps 734 mmHg 70%
    05:00 +6°C° 0.1 mm 2 mps 734 mmHg 67%
    06:00 +6°C° 0.1 mm 2 mps 734 mmHg 65%
    07:00 +5°C° 0.1 mm 2 mps 734 mmHg 63%
    08:00 +6°C° 0 mm 2 mps 734 mmHg 58%
    09:00 +7°C° 0 mm 2 mps 734 mmHg 54%
    10:00 +8°C° 0 mm 2 mps 734 mmHg 50%
    11:00 +9°C° 0 mm 2 mps 734 mmHg 46%
    12:00 +10°C° 0 mm 2 mps 734 mmHg 42%
    13:00 +12°C° 0 mm 2 mps 734 mmHg 39%
    14:00 +12°C° 0 mm 2 mps 734 mmHg 41%
    15:00 +10°C° 0 mm 2 mps 734 mmHg 44%
    16:00 +10°C° 0 mm 2 mps 734 mmHg 46%
    17:00 +9°C° 0 mm 2 mps 735 mmHg 49%
    18:00 +8°C° 0 mm 2 mps 735 mmHg 51%
    19:00 +8°C° 0 mm 1 mps 736 mmHg 54%
    20:00 +8°C° 0 mm 1 mps 736 mmHg 54%
    21:00 +8°C° 0 mm 1 mps 737 mmHg 53%
    22:00 +7°C° 0 mm 1 mps 737 mmHg 53%
    23:00 +7°C° 0 mm 1 mps 737 mmHg 53%

    Day after tomorrow, 14 November, Thursday

    Time Temperature Precipitation Wind Pressure Humidity
    00:00 +7°C° 0 mm 1 mps 737 mmHg 53%
    01:00 +7°C° 0 mm 1 mps 737 mmHg 53%
    02:00 +6°C° 0 mm 1 mps 737 mmHg 55%
    03:00 +6°C° 0 mm 1 mps 737 mmHg 56%
    04:00 +6°C° 0 mm 1 mps 737 mmHg 57%
    05:00 +6°C° 0 mm 1 mps 738 mmHg 59%
    06:00 +6°C° 0 mm 1 mps 738 mmHg 60%
    07:00 +6°C° 0 mm 1 mps 739 mmHg 61%
    08:00 +7°C° 0 mm 1 mps 738 mmHg 59%
    09:00 +7°C° 0 mm 1 mps 738 mmHg 57%
    10:00 +8°C° 0 mm 1 mps 738 mmHg 55%
    11:00 +8°C° 0 mm 1 mps 738 mmHg 58%
    12:00 +9°C° 0 mm 1 mps 738 mmHg 61%
    13:00 +9°C° 0 mm 1 mps 737 mmHg 63%
    14:00 +9°C° 0.1 mm 1 mps 737 mmHg 67%
    15:00 +9°C° 0.1 mm 1 mps 737 mmHg 71%
    16:00 +9°C° 0.1 mm 1 mps 736 mmHg 75%
    17:00 +8°C° 0.1 mm 2 mps 736 mmHg 77%
    18:00 +7°C° 0.1 mm 2 mps 735 mmHg 78%
    19:00 +7°C° 0.1 mm 3 mps 735 mmHg 79%
    20:00 +8°C° 1.1 mm 3 mps 735 mmHg 80%
    21:00 +8°C° 1.1 mm 3 mps 734 mmHg 81%
    22:00 +8°C° 1.1 mm 3 mps 734 mmHg 83%
    23:00 +8°C° 4.7 mm 3 mps 734 mmHg 86%

    15 November, Friday

    Time Temperature Precipitation Wind Pressure Humidity
    00:00 +7°C° 4.7 mm 3 mps 733 mmHg 89%
    01:00 +7°C° 4.7 mm 3 mps 733 mmHg 93%
    02:00 +7°C° 3.1 mm 2 mps 733 mmHg 93%
    03:00 +7°C° 3.1 mm 2 mps 733 mmHg 93%
    04:00 +8°C° 3.1 mm 2 mps 733 mmHg 93%
    05:00 +8°C° 0.7 mm 2 mps 734 mmHg 93%
    06:00 +8°C° 0.7 mm 2 mps 734 mmHg 93%
    07:00 +8°C° 0.7 mm 2 mps 735 mmHg 93%
    08:00 +8°C° 0.6 mm 2 mps 735 mmHg 91%
    09:00 +8°C° 0.6 mm 2 mps 735 mmHg 89%
    10:00 +8°C° 0.6 mm 2 mps 736 mmHg 86%
    11:00 +10°C° 0.2 mm 1 mps 736 mmHg 84%
    12:00 +10°C° 0.2 mm 1 mps 736 mmHg 82%
    13:00 +10°C° 0.2 mm 1 mps 736 mmHg 80%
    14:00 +10°C° 0.2 mm 1 mps 736 mmHg 81%
    15:00 +10°C° 0.2 mm 1 mps 735 mmHg 82%
    16:00 +10°C° 0.2 mm 1 mps 735 mmHg 83%
    17:00 +9°C° 0.2 mm 1 mps 736 mmHg 84%
    18:00 +9°C° 0.2 mm 1 mps 736 mmHg 86%
    19:00 +8°C° 0.2 mm 1 mps 737 mmHg 87%
    20:00 +8°C° 0 mm 1 mps 737 mmHg 86%
    21:00 +8°C° 0 mm 1 mps 738 mmHg 86%
    22:00 +8°C° 0 mm 1 mps 738 mmHg 86%
    23:00 +8°C° 0 mm 1 mps 739 mmHg 86%

    16 November, Saturday

    Time Temperature Precipitation Wind Pressure Humidity
    00:00 +8°C° 0 mm 1 mps 739 mmHg 86%
    01:00 +8°C° 0 mm 1 mps 740 mmHg 86%
    02:00 +8°C° 0 mm 1 mps 740 mmHg 84%
    03:00 +8°C° 0 mm 1 mps 740 mmHg 83%
    04:00 +8°C° 0 mm 1 mps 740 mmHg 82%
    05:00 +8°C° 0 mm 1 mps 741 mmHg 81%
    06:00 +8°C° 0 mm 1 mps 741 mmHg 81%
    07:00 +8°C° 0 mm 1 mps 742 mmHg 81%
    08:00 +8°C° 0.5 mm 1 mps 742 mmHg 82%
    09:00 +8°C° 0.5 mm 1 mps 742 mmHg 82%
    10:00 +9°C° 0.5 mm 1 mps 742 mmHg 83%
    11:00 +9°C° 0.3 mm 1 mps 742 mmHg 79%
    12:00 +8°C° 0.3 mm 2 mps 741 mmHg 76%
    13:00 +9°C° 0.3 mm 2 mps 741 mmHg 72%
    14:00 +9°C° 0 mm 2 mps 740 mmHg 73%
    15:00 +9°C° 0 mm 2 mps 740 mmHg 73%
    16:00 +10°C° 0 mm 1 mps 740 mmHg 74%
    17:00 +9°C° 0.1 mm 1 mps 739 mmHg 75%
    18:00 +9°C° 0.1 mm 1 mps 739 mmHg 77%
    19:00 +9°C° 0.1 mm 1 mps 739 mmHg 78%
    20:00 +9°C° 0.1 mm 1 mps 738 mmHg 79%
    21:00 +8°C° 0.1 mm 1 mps 738 mmHg 79%
    22:00 +8°C° 0.1 mm 1 mps 737 mmHg 80%
    23:00 +8°C° 0.5 mm 1 mps 737 mmHg 80%

    17 November, Sunday

    Time Temperature Precipitation Wind Pressure Humidity
    00:00 +8°C° 0.5 mm 1 mps 736 mmHg 80%
    01:00 +7°C° 0.5 mm 2 mps 735 mmHg 81%
    02:00 +7°C° 1 mm 2 mps 735 mmHg 81%
    03:00 +7°C° 1 mm 3 mps 734 mmHg 82%
    04:00 +5°C° 1 mm 3 mps 733 mmHg 83%
    05:00 +5°C° 2.5 mm 3 mps 734 mmHg 84%
    06:00 +6°C° 2.5 mm 2 mps 734 mmHg 86%
    07:00 +6°C° 2.5 mm 2 mps 734 mmHg 88%
    08:00 +6°C° 0.6 mm 2 mps 735 mmHg 87%
    09:00 +6°C° 0.6 mm 2 mps 735 mmHg 87%
    10:00 +6°C° 0.6 mm 2 mps 736 mmHg 86%
    11:00 +8°C° 0.4 mm 1 mps 736 mmHg 83%
    12:00 +8°C° 0.4 mm 1 mps 736 mmHg 80%
    13:00 +9°C° 0.4 mm 1 mps 736 mmHg 77%
    14:00 +9°C° 0 mm 1 mps 737 mmHg 76%
    15:00 +9°C° 0 mm 1 mps 737 mmHg 76%
    16:00 +9°C° 0 mm 1 mps 738 mmHg 75%
    17:00 +9°C° 0 mm 1 mps 738 mmHg 76%
    18:00 +9°C° 0 mm 1 mps 739 mmHg 77%
    19:00 +8°C° 0 mm 1 mps 740 mmHg 79%
    20:00 +8°C° 0.1 mm 1 mps 740 mmHg 79%
    21:00 +8°C° 0.1 mm 1 mps 741 mmHg 79%
    22:00 +8°C° 0.1 mm 1 mps 742 mmHg 80%
    23:00 +8°C° 0 mm 1 mps 742 mmHg 79%
    Show more